Miscellaneous Local Product
Issued by NWS North Platte, NE

Home | Current Version | Previous Version | Text Only | Print | Product List | Glossary On
Versions: 1 2 3 4 5 6 7 8 9 10 11 12 13 14 15 16 17 18 19 20 21 22 23 24 25 26 27 28 29 30 31 32 33 34 35 36 37 38 39 40 41 42 43 44 45 46 47 48 49 50
300
AXUS43 KLBF 260110
MISLBF


WESTERN AND NORTH CENTRAL NEBRASKA HOURLY WEATHER ROUNDUP
NATIONAL WEATHER SERVICE NORTH PLATTE NE
800 PM CDT TUE APR 25 2017

NOTE: "FAIR" INDICATES FEW OR NO CLOUDS BELOW 12,000 FEET WITH NO
SIGNIFICANT WEATHER AND/OR OBSTRUCTIONS TO VISIBILITY.

NOTE: STATIONS NOT REPORTING VARIABLES SUCH AS SKY/WEATHER OR
PRESSURE ARE PROVIDED BY RAWS AND APRS NETWORKS AND ARE NOT UNDER
NATIONAL WEATHER SERVICE QUALITY CONTROL.

...OBSERVATIONS IN AND NEAR THE EASTERN PANHANDLE OF NEBRASKA...

CITY           SKY/WX    TMP DP  RH WIND       PRES   REMARKS
PINE RIDGE     LGT SNOW  31  27  85 N14       29.82R FOG     WCI  21
CHADRON        LGT SNOW  30  28  92 NE12      29.84R VSB 1   WCI  20
ALLIANCE       CLOUDY    33  28  81 NE18      29.76R WCI  22
SIDNEY         CLOUDY    36  33  89 NE21      29.74R WCI  25
CRESCENT LAKE    N/A     33  29  84 NE15G23     N/A  WCI  23
$$

...OBSERVATIONS IN NORTHERN NEBRASKA AND FAR SOUTHERN SOUTH DAKOTA...

CITY           SKY/WX    TMP DP  RH WIND       PRES   REMARKS
WINNER         CLOUDY    36  31  82 N14       29.78R WCI  27
VALENTINE      CLOUDY    34  27  75 N16       29.78R WCI  24
THEDFORD       CLOUDY    36  31  85 N14G22    29.74R WCI  27
AINSWORTH      CLOUDY    33  32  95 N17G23    29.76R WCI  22
O`NEILL        CLOUDY    37  33  87 N20G28    29.71S WCI  26
ORD            CLOUDY    38  34  85 N14       29.68R WCI  30
BROKEN BOW     CLOUDY    37  33  85 N22       29.69R WCI  26
VALENTINE NWR    N/A     33  29  85 N14G23      N/A  WCI  23
HALSEY           N/A     34  30  85 N10G20      N/A  WCI  26
BUTTE            N/A     35  32  88 N15G26      N/A  WCI  25
CHAMBERS         N/A     36  34  92 N8          N/A  WCI  30
EWING            N/A     36  34  94 N13G20      N/A  WCI  27
$$

...OBSERVATIONS IN SOUTHWEST NEBRASKA AND FAR NORTHEAST COLORADO...

CITY           SKY/WX    TMP DP  RH WIND       PRES   REMARKS
HOLYOKE        CLOUDY    45  37  76 NE20      29.70R
IMPERIAL       CLOUDY    42  35  76 NE18      29.70R
OGALLALA       CLOUDY    42  34  75 N14       29.74R
NORTH PLATTE   CLOUDY    39  33  79 N18G28    29.71R WCI  30
MCCOOK         CLOUDY    44  38  79 N14       29.69R
LEXINGTON      CLOUDY    39  34  82 N18       29.68R WCI  29
STAPLETON        N/A     35  31  85 CALM        N/A
GOTHENBURG       N/A     39  33  80 N12         N/A  WCI  32
CALLAWAY         N/A     36  34  91 N15         N/A  WCI  27
$$

...OBSERVATIONS IN CENTRAL LINCOLN COUNTY AREA...

CITY           SKY/WX    TMP DP  RH WIND       PRES   REMARKS
N.P. AIRPORT   CLOUDY    39  33  79 N18G28    29.71R WCI  30
N.P. DOWNTOWN    N/A     38  33  82 N13G20      N/A  WCI  30
N.P. SOUTHEAST   N/A     38  32  79 N9G20       N/A  WCI  31
N.P. HILLCREST   N/A     37  33  84 NE20G28     N/A  WCI  26
$$

...SOME OBSERVATIONS FROM AROUND THE REGION...

CITY           SKY/WX    TMP DP  RH WIND       PRES   REMARKS
DENVER         LGT RAIN  43  35  73 N23G30    29.69R
LIMON          CLOUDY    43  38  82 CALM      29.64R
ASPEN          CLOUDY    33  28  81 SW7       29.77R WCI  27
LARAMIE        CLOUDY    32  22  66 NW22G30   29.75R WCI  19
CASPER         LGT SNOW  30  26  85 N6        29.85R FOG     WCI  24
CHEYENNE       CLOUDY    33  24  69 N24G33    29.72R WCI  20
SCOTTSBLUFF    CLOUDY    36  29  75 NE17      29.77R WCI  26
GRAND ISLAND   CLOUDY    39  37  92 N20       29.66R WCI  29
OMAHA          LGT RAIN  45  40  82 N20G29    29.56R
SIOUX FALLS    LGT RAIN  38  38 100 N16       29.66S FOG     WCI  29
PIERRE         FLURRIES  32  29  88 N17       29.81S WCI  21
RAPID CITY     FLURRIES  28  24  85 N20       29.86R WCI  15
BISMARCK       CLOUDY    37  27  67 N12       29.89F WCI  29
KANSAS CITY    CLOUDY    67  57  70 NW5       29.44R
HILL CITY      CLOUDY    47  41  80 NE13      29.64R
WICHITA        CLOUDY    56  51  84 N20       29.46F
DODGE CITY     LGT RAIN  52  48  86 N13       29.56R
OKLAHOMA CITY  MOCLDY    72  60  66 NW6       29.39R
DALLAS         CLOUDY    82  68  62 S16G28    29.41S
AMARILLO       CLEAR     60  48  64 NE15G28   29.49R
$$




USA.gov is the U.S. government's official web portal to all federal, state and local government web resources and services.